Regional Weather Roundup
Issued by NWS

Home | Current Version | Previous Version | Graphics & Text | Print | Product List | Glossary Off
Versions: 1 2 3 4 5 6 7 8 9 10 11 12 13 14 15 16 17 18 19 20 21 22 23 24 25 26 27 28 29 30 31 32 33 34 35 36 37 38 39 40 41 42 43 44 45 46 47 48 49 50

000
ASUS43 KTOP 310859
RWRKS

WEATHER ROUNDUP FOR KANSAS
NATIONAL WEATHER SERVICE GOODLAND KS
400 AM CDT MON AUG 31 2015

NOTE:  "FAIR" INDICATES FEW OR NO CLOUDS BELOW 12,000 FEET WITH NO
SIGNIFICANT WEATHER AND/OR OBSTRUCTIONS TO VISIBILITY.

KSZ001>006-013>018-027>032-041>047-311000-
NORTHWEST KANSAS

CITY           SKY/WX    TMP DP  RH WIND       PRES   REMARKS
GOODLAND       CLEAR     61  51  70 S14       29.95F
HAYS           CLEAR     61  52  72 SE3       29.95S
HILL CITY      CLEAR     63  60  90 S5        29.94F
RUSSELL        CLEAR     64  62  93 S9        29.93F
$$

KSZ061>065-074>080-084>089-311000-
SOUTHWEST KANSAS

CITY           SKY/WX    TMP DP  RH WIND       PRES   REMARKS
DODGE CITY     CLEAR     61  59  93 S6        29.96F
ELKHART          N/A     62  51  67 S7          N/A
GARDEN CITY    CLEAR     62  57  83 SE10      29.94F
GREAT BEND     CLEAR     61  57  88 S3        29.95F
LIBERAL        CLEAR     63  50  63 SE7       29.96F
PRATT          CLEAR     64  63  94 CALM      29.97R FOG
$$

KSZ066>073-081>083-090>101-311000-
SOUTHEAST KANSAS

CITY           SKY/WX    TMP DP  RH WIND       PRES   REMARKS
CHANUTE        CLEAR     71  70  96 SE5       29.96R FOG
COFFEYVILLE    CLEAR     68  68 100 S5        29.95S
HUTCHINSON     FOG       66  64  93 CALM      29.96S VSB 1/4
NEWTON         CLEAR     66  61  82 SE7       29.98F
PARSONS        CLEAR     71  69  93 SE3       29.96S
WICHITA INTL   CLEAR     70  67  90 SE3       29.94F FOG
WICHITA JABRA  FOG       65  64  97 CALM      29.95S VSB 1/4
WINFIELD       CLEAR     68  67  96 CALM      29.95S FOG
$$

KSZ007>012-019>026-033>040-048>060-102>105-311000-
NORTHEAST KANSAS

CITY           SKY/WX    TMP DP  RH WIND       PRES   REMARKS
CONCORDIA      CLEAR     65  63  93 S8        29.94F
EMPORIA        CLEAR     65  65 100 SW3       29.96S
LAWRENCE       CLEAR     65  63  93 CALM      29.95S FOG
MANHATTAN      CLEAR     64  63  96 CALM      29.95S FOG
OLATHE IND     CLEAR     71  70  96 SE7       29.96F FOG
OLATHE EXE     CLEAR     70  69  97 SE5       29.96S FOG
SALINA         CLEAR     63  61  93 SE5       29.94F FOG
TOPEKA BILLARD CLEAR     68  67  96 CALM      29.95S
TOPEKA FORBES  CLEAR     68  65  90 CALM      29.96S FOG
$$



USA.gov is the U.S. government's official web portal to all federal, state and local government web resources and services.